| time (UTC) | temp C | wind direction | speed KPH | gust KPH | rain 1hr cm | rain 24hr cm | rain mn cm | humidity % | barometer mb |
| 20260502130434 | 12 | 355 | 1.6 | 6.4 | 0.00 | 0.00 | 0.00 | 98 | 1021.7 |
| 20260502123416 | 10 | 359 | 1.6 | 6.4 | 0.00 | 0.00 | 0.00 | 99 | 1021.6 |
| 20260502122914 | 10 | 45 | 0.0 | 3.2 | 0.00 | 0.00 | 0.00 | 99 | 1021.7 |
| 20260502122410 | 10 | 336 | 3.2 | 8.0 | 0.00 | 0.00 | 0.00 | 99 | 1021.8 |
| 20260502121908 | 10 | 17 | 1.6 | 4.8 | 0.00 | 0.00 | 0.00 | 99 | 1021.5 |
| 20260502121405 | 10 | 33 | 1.6 | 4.8 | 0.00 | 0.00 | 0.00 | 99 | 1021.4 |
| 20260502120903 | 9 | 281 | 1.6 | 4.8 | 0.00 | 0.00 | 0.00 | 99 | 1021.3 |
| 20260502120358 | 9 | 261 | 1.6 | 3.2 | 0.00 | 0.00 | 0.00 | 99 | 1021.2 |
| 20260502115856 | 9 | 190 | 0.0 | 3.2 | 0.00 | 0.00 | 0.00 | 99 | 1020.9 |
| 20260502115353 | 9 | 341 | 1.6 | 4.8 | 0.00 | 0.00 | 0.00 | 99 | 1021.1 |
| 20260502114849 | 9 | 166 | 1.6 | 4.8 | 0.00 | 0.00 | 0.00 | 99 | 1020.9 |
| 20260502114346 | 9 | 165 | 0.0 | 3.2 | 0.00 | 0.00 | 0.00 | 99 | 1020.9 |
| 20260502113843 | 10 | 8 | 1.6 | 4.8 | 0.00 | 0.00 | 0.00 | 99 | 1020.9 |
| 20260502113341 | 10 | 9 | 4.8 | 6.4 | 0.00 | 0.00 | 0.00 | 99 | 1021.0 |
| 20260502112839 | 10 | 76 | 1.6 | 4.8 | 0.00 | 0.00 | 0.00 | 99 | 1020.8 |
| 20260502112336 | 10 | 8 | 3.2 | 6.4 | 0.00 | 0.00 | 0.00 | 99 | 1020.7 |
| 20260502111834 | 10 | 332 | 3.2 | 6.4 | 0.00 | 0.00 | 0.00 | 99 | 1020.5 |
| 20260502111331 | 10 | 346 | 8.0 | 9.7 | 0.00 | 0.00 | 0.00 | 99 | 1020.5 |
| 20260502110828 | 10 | 22 | 3.2 | 8.0 | 0.00 | 0.00 | 0.00 | 99 | 1020.3 |
| 20260502110326 | 10 | 60 | 0.0 | 6.4 | 0.00 | 0.00 | 0.00 | 99 | 1020.3 |
| 20260502105823 | 10 | 329 | 4.8 | 6.4 | 0.00 | 0.00 | 0.00 | 99 | 1019.9 |
| 20260502105320 | 10 | 63 | 3.2 | 6.4 | 0.00 | 0.00 | 0.00 | 99 | 1019.7 |
| 20260502104818 | 10 | 35 | 3.2 | 4.8 | 0.00 | 0.00 | 0.00 | 99 | 1019.7 |
| 20260502104315 | 10 | 199 | 0.0 | 11.3 | 0.00 | 0.00 | 0.00 | 99 | 1019.7 |
| 20260502103812 | 10 | 69 | 1.6 | 8.0 | 0.00 | 0.00 | 0.00 | 99 | 1019.7 |
| 20260502103309 | 10 | 348 | 6.4 | 9.7 | 0.00 | 0.00 | 0.00 | 99 | 1019.7 |
| 20260502102807 | 10 | 49 | 1.6 | 6.4 | 0.00 | 0.00 | 0.00 | 99 | 1020.0 |
| 20260502102306 | 10 | 219 | 3.2 | 6.4 | 0.00 | 0.00 | 0.00 | 99 | 1019.8 |
| 20260502101801 | 10 | 97 | 0.0 | 8.0 | 0.00 | 0.00 | 0.00 | 99 | 1019.7 |
| 20260502101259 | 10 | 72 | 3.2 | 4.8 | 0.00 | 0.00 | 0.00 | 99 | 1019.9 |
| 20260502100756 | 10 | 56 | 3.2 | 6.4 | 0.00 | 0.00 | 0.00 | 99 | 1019.7 |
| 20260502100255 | 10 | 52 | 0.0 | 6.4 | 0.00 | 0.00 | 0.00 | 99 | 1019.8 |
| 20260502091229 | 10 | 37 | 0.0 | 9.7 | 0.00 | 0.00 | 0.00 | 99 | 1018.6 |
| 20260502090727 | 10 | 21 | 4.8 | 14.5 | 0.00 | 0.00 | 0.00 | 99 | 1018.7 |
| 20260502090223 | 10 | 349 | 6.4 | 14.5 | 0.00 | 0.00 | 0.00 | 99 | 1018.7 |
| 20260502071119 | 11 | 159 | 1.6 | 4.8 | 0.00 | 0.00 | 0.00 | 99 | 1018.1 |
| 20260502070617 | 10 | 102 | 0.0 | 4.8 | 0.00 | 0.00 | 0.00 | 99 | 1018.1 |
| 20260502070115 | 10 | 60 | 3.2 | 6.4 | 0.00 | 0.00 | 0.00 | 99 | 1018.2 |
| 20260502065613 | 10 | 38 | 4.8 | 8.0 | 0.00 | 0.00 | 0.00 | 99 | 1018.2 |
| 20260502065110 | 10 | 58 | 1.6 | 4.8 | 0.00 | 0.00 | 0.00 | 99 | 1018.3 |
| 20260502064609 | 10 | 36 | 0.0 | 8.0 | 0.00 | 0.00 | 0.00 | 99 | 1018.4 |
| 20260502064105 | 10 | 38 | 0.0 | 8.0 | 0.00 | 0.00 | 0.00 | 99 | 1018.1 |
| 20260502063603 | 10 | 345 | 1.6 | 6.4 | 0.00 | 0.00 | 0.00 | 99 | 1018.2 |
| 20260502063100 | 10 | 299 | 3.2 | 6.4 | 0.00 | 0.00 | 0.00 | 99 | 1018.4 |
| 20260502062557 | 10 | 119 | 0.0 | 6.4 | 0.00 | 0.00 | 0.00 | 99 | 1018.4 |
| 20260502062055 | 10 | 152 | 0.0 | 4.8 | 0.00 | 0.00 | 0.00 | 99 | 1018.5 |
| 20260502061553 | 10 | 284 | 3.2 | 4.8 | 0.00 | 0.00 | 0.00 | 99 | 1018.4 |
| 20260502061050 | 10 | 309 | 1.6 | 8.0 | 0.00 | 0.00 | 0.00 | 99 | 1018.6 |
| 20260502060545 | 10 | 48 | 3.2 | 4.8 | 0.00 | 0.00 | 0.00 | 99 | 1018.5 |
| 20260502060042 | 10 | 78 | 1.6 | 6.4 | 0.00 | 0.00 | 0.00 | 99 | 1018.4 |
| 20260502055540 | 10 | 46 | 1.6 | 12.9 | 0.00 | 0.00 | 0.00 | 99 | 1018.3 |
| 20260502055038 | 10 | 53 | 3.2 | 8.0 | 0.00 | 0.00 | 0.00 | 99 | 1018.4 |
| 20260502054537 | 10 | 107 | 1.6 | 4.8 | 0.00 | 0.00 | 0.00 | 99 | 1018.4 |
| 20260502054033 | 10 | 24 | 4.8 | 8.0 | 0.00 | 0.00 | 0.00 | 99 | 1018.4 |
| 20260502053530 | 11 | 4 | 4.8 | 9.7 | 0.00 | 0.00 | 0.00 | 99 | 1018.4 |
| 20260502053028 | 11 | 61 | 4.8 | 8.0 | 0.00 | 0.00 | 0.00 | 99 | 1018.5 |
| 20260502052526 | 11 | 354 | 4.8 | 9.7 | 0.00 | 0.00 | 0.00 | 99 | 1018.5 |
| 20260502052024 | 11 | 350 | 1.6 | 8.0 | 0.00 | 0.00 | 0.00 | 99 | 1018.5 |
| 20260502051522 | 11 | 2 | 6.4 | 14.5 | 0.00 | 0.00 | 0.00 | 99 | 1018.4 |
| 20260502051020 | 11 | 79 | 1.6 | 4.8 | 0.00 | 0.00 | 0.00 | 99 | 1018.5 |
| 20260502050515 | 11 | 337 | 1.6 | 6.4 | 0.00 | 0.00 | 0.00 | 99 | 1018.5 |
| 20260502050013 | 11 | 287 | 1.6 | 6.4 | 0.00 | 11.18 | 11.18 | 99 | 1018.1 |
| 20260502045509 | 11 | 303 | 4.8 | 8.0 | 0.00 | 11.18 | 11.18 | 99 | 1018.2 |
| 20260502045006 | 11 | 10 | 6.4 | 9.7 | 0.00 | 11.18 | 11.18 | 99 | 1018.0 |
| 20260502044502 | 11 | 3 | 4.8 | 9.7 | 0.00 | 11.18 | 11.18 | 99 | 1018.1 |
| 20260502043959 | 12 | 342 | 4.8 | 17.7 | 0.00 | 11.18 | 11.18 | 99 | 1018.0 |
| 20260502043457 | 12 | 166 | 0.0 | 4.8 | 0.00 | 11.18 | 11.18 | 99 | 1017.9 |
| 20260502042956 | 12 | 100 | 4.8 | 6.4 | 0.00 | 11.18 | 11.18 | 99 | 1017.8 |
| 20260502042454 | 12 | 312 | 3.2 | 11.3 | 0.00 | 11.18 | 11.18 | 99 | 1017.9 |
| 20260502041951 | 12 | 55 | 6.4 | 12.9 | 0.00 | 11.18 | 11.18 | 99 | 1017.9 |
| 20260502041449 | 12 | 31 | 4.8 | 6.4 | 0.00 | 11.18 | 11.18 | 99 | 1018.1 |
| 20260502040945 | 12 | 20 | 3.2 | 9.7 | 0.00 | 11.18 | 11.18 | 99 | 1017.9 |
| 20260502040442 | 12 | 322 | 4.8 | 11.3 | 0.00 | 11.18 | 11.18 | 99 | 1018.1 |
| 20260502035938 | 12 | 166 | 3.2 | 16.1 | 0.00 | 11.18 | 11.18 | 99 | 1017.8 |
| 20260502035434 | 12 | 20 | 3.2 | 9.7 | 0.00 | 11.18 | 11.18 | 99 | 1017.9 |
| 20260502034932 | 12 | 345 | 4.8 | 17.7 | 0.00 | 11.18 | 11.18 | 99 | 1018.0 |
| 20260502034431 | 12 | 66 | 1.6 | 6.4 | 0.00 | 11.18 | 11.18 | 99 | 1017.9 |
| 20260502033929 | 12 | 22 | 3.2 | 14.5 | 0.00 | 11.18 | 11.18 | 99 | 1017.8 |
| 20260502033426 | 12 | 318 | 6.4 | 11.3 | 0.00 | 11.18 | 11.18 | 99 | 1017.9 |
| 20260502032922 | 12 | 42 | 4.8 | 9.7 | 0.00 | 11.18 | 11.18 | 99 | 1017.5 |
| 20260502032419 | 12 | 9 | 4.8 | 14.5 | 0.00 | 11.18 | 11.18 | 99 | 1017.4 |
| 20260502031916 | 12 | 41 | 3.2 | 8.0 | 0.00 | 11.18 | 11.18 | 99 | 1017.4 |
| 20260502031415 | 12 | 47 | 4.8 | 14.5 | 0.00 | 11.18 | 11.18 | 99 | 1017.4 |
| 20260502030913 | 12 | 2 | 3.2 | 9.7 | 0.00 | 11.18 | 11.18 | 99 | 1017.4 |
| 20260502030411 | 12 | 100 | 1.6 | 9.7 | 0.00 | 11.18 | 11.18 | 99 | 1017.5 |
| 20260502025908 | 12 | 41 | 4.8 | 12.9 | 0.00 | 11.18 | 11.18 | 99 | 1017.6 |
| 20260502025405 | 12 | 12 | 1.6 | 16.1 | 0.00 | 11.18 | 11.18 | 99 | 1017.7 |
| 20260502024903 | 12 | 355 | 6.4 | 17.7 | 0.00 | 11.18 | 11.18 | 99 | 1017.6 |
| 20260502024401 | 12 | 276 | 1.6 | 19.3 | 0.00 | 11.18 | 11.18 | 99 | 1017.3 |
| 20260502023858 | 12 | 349 | 6.4 | 17.7 | 0.00 | 11.18 | 11.18 | 99 | 1017.1 |
| 20260502023355 | 12 | 356 | 9.7 | 14.5 | 0.00 | 11.18 | 11.18 | 99 | 1017.2 |
| 20260502022853 | 12 | 73 | 4.8 | 16.1 | 0.00 | 11.18 | 11.18 | 99 | 1017.0 |
| 20260502022349 | 12 | 319 | 4.8 | 11.3 | 0.00 | 11.18 | 11.18 | 99 | 1017.0 |
| 20260502021846 | 12 | 16 | 6.4 | 16.1 | 0.00 | 11.18 | 11.18 | 99 | 1016.8 |
| 20260502021344 | 12 | 346 | 9.7 | 12.9 | 0.00 | 11.18 | 11.18 | 99 | 1016.7 |
| 20260502020841 | 12 | 113 | 0.0 | 8.0 | 0.00 | 11.18 | 11.18 | 99 | 1016.6 |
| 20260502020338 | 12 | 310 | 1.6 | 12.9 | 0.00 | 11.18 | 11.18 | 99 | 1016.3 |
| 20260502015835 | 12 | 19 | 6.4 | 11.3 | 0.00 | 11.18 | 11.18 | 99 | 1016.3 |
| 20260502015332 | 12 | 337 | 3.2 | 9.7 | 0.00 | 11.18 | 11.18 | 99 | 1016.0 |
| 20260502014830 | 12 | 54 | 1.6 | 11.3 | 0.00 | 11.18 | 11.18 | 99 | 1015.8 |
| 20260502014327 | 12 | 84 | 1.6 | 6.4 | 0.00 | 11.18 | 11.18 | 99 | 1015.5 |
| 20260502013822 | 12 | 82 | 4.8 | 8.0 | 0.00 | 11.18 | 11.18 | 99 | 1015.1 |
| 20260502013318 | 13 | 49 | 4.8 | 16.1 | 0.00 | 11.18 | 11.18 | 99 | 1014.9 |
| 20260502012815 | 13 | 31 | 0.0 | 9.7 | 0.00 | 11.18 | 11.18 | 99 | 1015.0 |
| 20260502012313 | 13 | 6 | 4.8 | 6.4 | 0.00 | 11.18 | 11.18 | 99 | 1014.8 |
| 20260502011810 | 13 | 17 | 4.8 | 11.3 | 0.00 | 11.18 | 11.18 | 99 | 1015.0 |
| 20260502011306 | 13 | 76 | 6.4 | 14.5 | 0.00 | 11.18 | 11.18 | 99 | 1014.7 |
| 20260502010803 | 13 | 115 | 4.8 | 9.7 | 0.00 | 11.18 | 11.18 | 99 | 1014.9 |
| 20260502010300 | 13 | 14 | 4.8 | 9.7 | 0.00 | 11.18 | 11.18 | 99 | 1015.1 |
| 20260502005757 | 13 | 29 | 4.8 | 14.5 | 0.00 | 11.18 | 11.18 | 99 | 1015.4 |
| 20260502005255 | 13 | 41 | 1.6 | 9.7 | 0.00 | 11.18 | 11.18 | 99 | 1015.0 |
| 20260502004751 | 13 | 34 | 3.2 | 6.4 | 0.00 | 11.18 | 11.18 | 99 | 1015.3 |
| 20260502004248 | 13 | 33 | 4.8 | 8.0 | 0.13 | 11.18 | 11.18 | 99 | 1015.1 |
| 20260502003746 | 13 | 4 | 6.4 | 8.0 | 0.18 | 11.18 | 11.18 | 99 | 1015.1 |
| 20260502003243 | 13 | 241 | 3.2 | 6.4 | 0.18 | 11.15 | 11.15 | 99 | 1015.1 |
| 20260502002738 | 13 | 31 | 1.6 | 8.0 | 0.13 | 11.15 | 11.15 | 99 | 1015.5 |
| 20260502002236 | 13 | 80 | 3.2 | 8.0 | 0.13 | 11.13 | 11.13 | 99 | 1015.5 |
| 20260502001732 | 13 | 32 | 4.8 | 6.4 | 0.18 | 11.13 | 11.13 | 99 | 1015.4 |
| 20260502001231 | 13 | 19 | 6.4 | 14.5 | 0.23 | 11.10 | 11.10 | 99 | 1015.1 |
| 20260502000729 | 13 | 36 | 3.2 | 8.0 | 0.23 | 11.10 | 11.10 | 99 | 1014.9 |
| 20260502000226 | 14 | 21 | 4.8 | 12.9 | 0.18 | 11.05 | 11.05 | 99 | 1015.1 |
| 20260501235721 | 14 | 35 | 3.2 | 11.3 | 0.36 | 11.05 | 11.05 | 99 | 1015.2 |
| 20260501235218 | 14 | 7 | 6.4 | 14.5 | 0.36 | 11.02 | 11.02 | 99 | 1015.2 |
| 20260501234714 | 14 | 293 | 1.6 | 6.4 | 0.23 | 10.97 | 10.97 | 99 | 1015.0 |
| 20260501234211 | 14 | 309 | 1.6 | 9.7 | 0.36 | 10.95 | 10.95 | 99 | 1014.9 |
| 20260501233709 | 14 | 165 | 4.8 | 11.3 | 0.71 | 10.92 | 10.92 | 99 | 1014.8 |
| 20260501233206 | 14 | 328 | 3.2 | 6.4 | 0.48 | 10.87 | 10.87 | 99 | 1014.8 |
| 20260501232701 | 14 | 27 | 3.2 | 11.3 | 0.13 | 10.79 | 10.79 | 99 | 1015.0 |
| 20260501232159 | 14 | 342 | 6.4 | 9.7 | 0.00 | 10.77 | 10.77 | 99 | 1015.1 |
| 20260501231657 | 14 | 329 | 8.0 | 9.7 | 0.00 | 10.77 | 10.77 | 99 | 1014.7 |
| 20260501231155 | 14 | 53 | 3.2 | 12.9 | 0.05 | 10.77 | 10.77 | 99 | 1014.3 |
| 20260501230653 | 14 | 11 | 1.6 | 16.1 | 0.13 | 10.77 | 10.77 | 99 | 1014.0 |
| 20260501230151 | 15 | 323 | 1.6 | 11.3 | 0.23 | 10.77 | 10.77 | 99 | 1013.8 |
| 20260501225648 | 15 | 347 | 6.4 | 9.7 | 0.53 | 10.77 | 10.77 | 99 | 1014.0 |
| 20260501225144 | 15 | 354 | 1.6 | 14.5 | 0.61 | 10.72 | 10.72 | 99 | 1013.9 |
| 20260501224641 | 15 | 9 | 0.0 | 11.3 | 0.71 | 10.64 | 10.64 | 99 | 1013.4 |
| 20260501224138 | 14 | 358 | 4.8 | 14.5 | 1.45 | 10.62 | 10.62 | 99 | 1013.7 |
| 20260501223635 | 14 | 355 | 6.4 | 16.1 | 0.79 | 10.49 | 10.49 | 99 | 1013.7 |
| 20260501223132 | 14 | 338 | 9.7 | 22.5 | 0.05 | 10.36 | 10.36 | 99 | 1014.2 |
| 20260501222627 | 14 | 323 | 16.1 | 22.5 | 0.05 | 10.36 | 10.36 | 99 | 1014.1 |
| 20260501222125 | 14 | 27 | 4.8 | 11.3 | 0.00 | 10.36 | 10.36 | 99 | 1012.4 |
| 20260501221621 | 15 | 9 | 3.2 | 16.1 | 0.13 | 10.36 | 10.36 | 99 | 1011.5 |
| 20260501221119 | 15 | 62 | 4.8 | 22.5 | 0.23 | 10.36 | 10.36 | 99 | 1011.7 |
| 20260501220617 | 15 | 47 | 4.8 | 11.3 | 0.23 | 10.34 | 10.34 | 99 | 1011.4 |
| 20260501220113 | 15 | 94 | 3.2 | 6.4 | 0.23 | 10.31 | 10.31 | 99 | 1011.9 |
| 20260501215610 | 15 | 354 | 4.8 | 12.9 | 0.48 | 10.29 | 10.29 | 99 | 1012.3 |
| 20260501215105 | 15 | 20 | 8.0 | 12.9 | 0.48 | 10.26 | 10.26 | 99 | 1012.1 |
| 20260501214600 | 15 | 7 | 3.2 | 6.4 | 0.18 | 10.21 | 10.21 | 99 | 1012.2 |
| 20260501214056 | 15 | 123 | 1.6 | 8.0 | 0.18 | 10.19 | 10.19 | 99 | 1012.0 |
| 20260501213553 | 15 | 240 | 3.2 | 9.7 | 0.05 | 10.16 | 10.16 | 99 | 1011.8 |
| 20260501213049 | 15 | 49 | 6.4 | 12.9 | 0.00 | 10.16 | 10.16 | 99 | 1011.5 |
| 20260501212546 | 15 | 46 | 1.6 | 12.9 | 0.00 | 10.16 | 10.16 | 99 | 1011.6 |
| 20260501212043 | 15 | 349 | 3.2 | 19.3 | 0.00 | 10.16 | 10.16 | 99 | 1011.4 |
| 20260501211539 | 15 | 346 | 3.2 | 11.3 | 0.00 | 10.16 | 10.16 | 99 | 1011.4 |
| 20260501211038 | 15 | 57 | 6.4 | 11.3 | 0.00 | 10.16 | 10.16 | 99 | 1011.7 |
| 20260501210533 | 15 | 15 | 6.4 | 9.7 | 0.00 | 10.16 | 10.16 | 99 | 1011.9 |
| 20260501210030 | 15 | 73 | 4.8 | 14.5 | 0.00 | 10.16 | 10.16 | 99 | 1011.7 |
| 20260501205527 | 16 | 35 | 8.0 | 14.5 | 0.00 | 10.16 | 10.16 | 99 | 1011.9 |
| 20260501205025 | 16 | 9 | 4.8 | 8.0 | 0.00 | 10.16 | 10.16 | 99 | 1012.2 |
| 20260501204521 | 16 | 300 | 4.8 | 30.6 | 0.05 | 10.16 | 10.16 | 99 | 1012.4 |
| 20260501204017 | 15 | 12 | 11.3 | 24.1 | 0.13 | 10.16 | 10.16 | 99 | 1012.6 |
| 20260501203514 | 15 | 325 | 17.7 | 24.1 | 0.23 | 10.16 | 10.16 | 99 | 1012.4 |
| 20260501203012 | 15 | 353 | 11.3 | 22.5 | 0.61 | 10.13 | 10.13 | 99 | 1012.5 |
| 20260501202508 | 15 | 358 | 8.0 | 12.9 | 0.89 | 10.11 | 10.11 | 99 | 1012.8 |
| 20260501202004 | 15 | 0 | 8.0 | 24.1 | 0.43 | 10.01 | 10.01 | 99 | 1013.0 |
| 20260501201502 | 15 | 348 | 11.3 | 22.5 | 0.53 | 9.96 | 9.96 | 99 | 1012.7 |
| 20260501200958 | 15 | 51 | 1.6 | 8.0 | 0.48 | 9.93 | 9.93 | 99 | 1012.2 |
| 20260501200456 | 15 | 336 | 3.2 | 9.7 | 0.18 | 9.86 | 9.86 | 99 | 1011.3 |
| 20260501195953 | 15 | 66 | 4.8 | 8.0 | 0.13 | 9.86 | 9.86 | 99 | 1011.8 |
| 20260501195450 | 15 | 351 | 8.0 | 17.7 | 0.00 | 9.83 | 9.83 | 99 | 1012.2 |
| 20260501194945 | 15 | 342 | 9.7 | 17.7 | 0.05 | 9.83 | 9.83 | 99 | 1012.7 |
| 20260501194441 | 15 | 1 | 11.3 | 20.9 | 0.18 | 9.83 | 9.83 | 99 | 1012.6 |
| 20260501193937 | 16 | 56 | 3.2 | 17.7 | 0.23 | 9.83 | 9.83 | 99 | 1011.9 |
| 20260501193435 | 16 | 356 | 8.0 | 11.3 | 0.18 | 9.80 | 9.80 | 99 | 1012.1 |
| 20260501192933 | 16 | 353 | 8.0 | 22.5 | 0.13 | 9.78 | 9.78 | 99 | 1012.1 |
| 20260501192430 | 16 | 334 | 9.7 | 17.7 | 0.05 | 9.75 | 9.75 | 99 | 1012.3 |
| 20260501191927 | 16 | 3 | 4.8 | 14.5 | 0.30 | 9.75 | 9.75 | 99 | 1012.0 |
| 20260501191424 | 16 | 6 | 0.0 | 8.0 | 0.36 | 9.73 | 9.73 | 99 | 1011.8 |
| 20260501190921 | 16 | 85 | 0.0 | 8.0 | 0.18 | 9.68 | 9.68 | 99 | 1011.8 |
| 20260501190417 | 16 | 349 | 0.0 | 6.4 | 0.30 | 9.65 | 9.65 | 99 | 1011.8 |
| 20260501185917 | 16 | 51 | 3.2 | 14.5 | 0.71 | 9.63 | 9.63 | 99 | 1010.9 |
| 20260501185414 | 16 | 28 | 4.8 | 9.7 | 1.02 | 9.60 | 9.60 | 99 | 1011.5 |
| 20260501184909 | 16 | 32 | 0.0 | 8.0 | 0.61 | 9.50 | 9.50 | 99 | 1012.0 |
| 20260501184406 | 16 | 15 | 1.6 | 4.8 | 0.43 | 9.42 | 9.42 | 99 | 1011.7 |
| 20260501183901 | 16 | 0 | 4.8 | 14.5 | 0.36 | 9.40 | 9.40 | 99 | 1012.0 |
| 20260501183359 | 16 | 278 | 0.0 | 4.8 | 0.05 | 9.35 | 9.35 | 99 | 1011.7 |
| 20260501182855 | 16 | 55 | 3.2 | 6.4 | 0.00 | 9.32 | 9.32 | 99 | 1011.5 |
| 20260501182352 | 16 | 69 | 3.2 | 6.4 | 0.00 | 9.32 | 9.32 | 99 | 1011.4 |
| 20260501181849 | 16 | 56 | 4.8 | 9.7 | 0.00 | 9.32 | 9.32 | 99 | 1011.4 |
| 20260501181346 | 16 | 70 | 1.6 | 9.7 | 0.00 | 9.32 | 9.32 | 99 | 1011.2 |
| 20260501180844 | 16 | 81 | 3.2 | 9.7 | 0.00 | 9.32 | 9.32 | 99 | 1011.1 |
| 20260501180339 | 16 | 37 | 3.2 | 17.7 | 0.00 | 9.32 | 9.32 | 99 | 1011.5 |
| 20260501175837 | 16 | 54 | 1.6 | 22.5 | 0.00 | 9.32 | 9.32 | 99 | 1011.1 |
| 20260501175333 | 16 | 74 | 3.2 | 9.7 | 0.00 | 9.32 | 9.32 | 99 | 1011.3 |
| 20260501174830 | 16 | 74 | 3.2 | 12.9 | 0.00 | 9.32 | 9.32 | 99 | 1011.4 |
| 20260501174327 | 16 | 344 | 6.4 | 9.7 | 0.00 | 9.32 | 9.32 | 99 | 1011.2 |
| 20260501173825 | 17 | 125 | 4.8 | 6.4 | 0.00 | 9.32 | 9.32 | 99 | 1011.1 |
| 20260501173323 | 16 | 42 | 4.8 | 11.3 | 0.00 | 9.32 | 9.32 | 99 | 1010.7 |
| 20260501172818 | 15 | 47 | 4.8 | 14.5 | 0.00 | 9.32 | 9.32 | 99 | 1010.0 |
| 20260501172313 | 15 | 25 | 3.2 | 12.9 | 0.00 | 9.32 | 9.32 | 99 | 1011.0 |
| 20260501171809 | 15 | 228 | 3.2 | 8.0 | 0.00 | 9.32 | 9.32 | 99 | 1011.5 |
| 20260501171306 | 15 | 151 | 3.2 | 19.3 | 0.18 | 9.32 | 9.32 | 99 | 1011.0 |
| 20260501170803 | 15 | 64 | 6.4 | 17.7 | 0.30 | 9.32 | 9.32 | 99 | 1009.7 |
| 20260501170300 | 15 | 70 | 11.3 | 20.9 | 0.30 | 9.30 | 9.30 | 99 | 1010.6 |
| 20260501165757 | 15 | 69 | 4.8 | 9.7 | 0.36 | 9.27 | 9.27 | 99 | 1012.8 |
| 20260501165255 | 15 | 0 | 1.6 | 6.4 | 0.48 | 9.22 | 9.22 | 99 | 1014.0 |
| 20260501164752 | 15 | 6 | 0.0 | 14.5 | 0.61 | 9.19 | 9.19 | 99 | 1014.2 |
| 20260501164249 | 15 | 350 | 3.2 | 9.7 | 0.53 | 9.14 | 9.14 | 99 | 1014.4 |
| 20260501163745 | 15 | 320 | 1.6 | 9.7 | 0.30 | 9.09 | 9.09 | 99 | 1014.8 |
| 20260501163243 | 15 | 3 | 0.0 | 3.2 | 0.30 | 9.04 | 9.04 | 99 | 1014.7 |
| 20260501162738 | 15 | 132 | 0.0 | 6.4 | 0.36 | 9.04 | 9.04 | 99 | 1014.3 |
| 20260501162235 | 15 | 48 | 0.0 | 6.4 | 0.36 | 8.99 | 8.99 | 99 | 1014.0 |
| 20260501161732 | 15 | 106 | 0.0 | 8.0 | 0.43 | 8.97 | 8.97 | 99 | 1014.0 |
| 20260501161229 | 15 | 43 | 3.2 | 11.3 | 0.30 | 8.92 | 8.92 | 99 | 1014.1 |
| 20260501160726 | 15 | 61 | 8.0 | 12.9 | 0.18 | 8.89 | 8.89 | 99 | 1013.3 |
| 20260501160223 | 15 | 343 | 0.0 | 8.0 | 0.23 | 8.86 | 8.86 | 99 | 1014.3 |
| 20260501155720 | 15 | 40 | 3.2 | 4.8 | 0.43 | 8.86 | 8.86 | 99 | 1014.4 |
| 20260501155217 | 15 | 35 | 0.0 | 9.7 | 0.43 | 8.81 | 8.81 | 99 | 1014.0 |
| 20260501154714 | 15 | 29 | 3.2 | 8.0 | 0.36 | 8.79 | 8.79 | 99 | 1014.0 |
| 20260501154211 | 15 | 88 | 3.2 | 11.3 | 0.36 | 8.74 | 8.74 | 99 | 1013.4 |
| 20260501153709 | 15 | 78 | 3.2 | 6.4 | 0.30 | 8.71 | 8.71 | 99 | 1014.2 |
| 20260501153206 | 15 | 27 | 3.2 | 17.7 | 0.36 | 8.69 | 8.69 | 99 | 1014.5 |
| 20260501152702 | 15 | 349 | 1.6 | 11.3 | 0.61 | 8.66 | 8.66 | 99 | 1014.6 |
| 20260501152159 | 16 | 273 | 1.6 | 11.3 | 0.79 | 8.61 | 8.61 | 99 | 1014.3 |
| 20260501151656 | 16 | 33 | 1.6 | 12.9 | 0.79 | 8.53 | 8.53 | 99 | 1014.4 |
| 20260501151152 | 16 | 345 | 8.0 | 20.9 | 1.19 | 8.46 | 8.46 | 99 | 1014.3 |
| 20260501150649 | 15 | 3 | 4.8 | 20.9 | 1.75 | 8.38 | 8.38 | 99 | 1014.6 |
| 20260501150145 | 16 | 341 | 11.3 | 17.7 | 1.63 | 8.23 | 8.23 | 99 | 1014.6 |
| 20260501145641 | 16 | 343 | 4.8 | 14.5 | 1.50 | 8.08 | 8.08 | 99 | 1014.7 |
| 20260501145139 | 16 | 337 | 3.2 | 20.9 | 1.75 | 7.95 | 7.95 | 99 | 1015.1 |
| 20260501144635 | 16 | 324 | 16.1 | 22.5 | 1.32 | 7.75 | 7.75 | 99 | 1015.0 |
| 20260501144130 | 16 | 344 | 11.3 | 17.7 | 0.53 | 7.57 | 7.57 | 99 | 1014.5 |
| 20260501143626 | 16 | 340 | 6.4 | 12.9 | 0.30 | 7.52 | 7.52 | 99 | 1014.0 |